FMN 1 (43192 NORAD) Tracking and Keplerian Element Data

This shows tracking and keplerian element data for the satellite.

Feedback or suggestion? Click here.




ElementValue
Catalog43192
NameFMN 1
Epoch Orbit2976
Epoch Day228.94676228
Epoch Year2018
RAAN356.617
Inclination97.3633
Eccentricity0.0015404
Argument of Perigee292.3636
Mean Anonmoly67.5967
Mean Motion15.23001125
Decay Rate1.273E-05
L11 43192U 18015A 18228.94676228 .00001273 00000-0 57005-4 0 9993
L22 43192 097.3633 356.6170 0015404 292.3636 067.5967 15.23001125029769

Live tracking and technical data element details for FMN 1 (NORAD 43192). FMN 1 can be tracked NOW for your location showing map with azimuth and elevation plus other details from your city location.

Track the satellite on the map from your city or location and see movement details for azimuth, elevation, latitude, longitude, range, height, and movement on the map or in text.







IsCatalogInMostPopularTable: catalog: 43192, numindb: 121
Update: records affected: 1



GetName: 43192 FMN 1

Hit Count: updated at: Fri, 17 Aug 2018 13:19:40 GMT